STARLINK-33786, 63514

Orbit data source: Space-Track

STARLINK-33786, 63514 is a payload satellite owned by SpaceX/Seattle (US) in LEO that was launched on Mon, 07 Apr 2025 UTC via an FALCON 9 launch vehicle from the Air Force Western Test Range (AFWTR). Payload-class satellites include a variety of spacecraft equipped with specific instruments for various scientific and technological missions. These include communications satellites like Starlink; space stations such as the ISS; scientific satellites like the Hubble; Earth observation satellites from companies like Planet Labs, Umbra, and HawkEye 360; GPS; miniature CubeSats for education and research; and military/defense satellites.

Loading next visibility...
Identifier
63514, 2025-071X
Orbit
LEO
Last TLE update
13 hours ago
Origin
Manufacturer
SpaceX/Seattle
Mission
Operational Commercial Communications
Bus & Motor
STARLINK V2MO, Unknown motor
Mass
575 kg wet, ~530 kg dry
Launch date (UTC)
2025-04-07 (1 month ago)
Launch vehicle
FALCON 9
Launch site
Air Force Western Test Range (AFWTR)
Object type
Payload
Rocket body
Debris
Shape & HBR
Box + 1 Pan, 29 m
Radar Cross Section
41.120 m², Large (>1 m²)

Expand to show TLE details & history

TLE from 13 hours ago
0 STARLINK-33786
1 63514U 25071X   25129.25002315 -.01365150  00000-0 -24158-1 0  9995
2 63514  53.1598 116.9318 0001160  70.8133  58.4840 15.52708737  5730
Epoch: 2025-05-09T06:00Z
Definitive object data (Epoch: 2025-05-09T06:00:02Z)
Latitude
38.38597°
Longitude
-56.55609°
Altitude
411.658 km
Speed
7.669 km/s
True Right ascension
17h 23m 02s
True Declination
38° 12' 37"
Sunlit
Object was in full shadow at TLE epoch
Visualization TLE readout
Latitude
-49.6545°
Longitude
95.71101°
Altitude
431.265 km
Speed
7.652 km/s
Apparent Right ascension
12h 52m 05s
Apparent Declination
-86° 13' 38"
Sunlit
Object is in daylight
Visualization observer readout
Local Sidereal Time
03:13:46
Azimuth
177.013° S
Elevation
-42.953°
Doppler factor
1
Orbital elements
Apogee altitude
409.867 km
Perigee altitude
408.293 km
Semi-major axis
6,787.217 km
Eccentricity
0.000116
Inclination
53.1598°
RAAN
116.9318°
Arg. of periapsis
70.8133°
True anomaly
58.49533°
Mean anomaly
58.484°
Eccentric anomaly
58.48967°
Mean motion
3.88155 °/min
BSTAR
-0.024158
Orbital period
92.75 mins
Loading maneuver chart data...
Loading SW <> Apogee altitude chart data...
Loading historical data...
Loading historical data...
Loading historical data...
Loading historical data...
Loading historical data...
Loading historical data...
Loading historical data...

STARLINK-33786 Visibility forecast

Observer location: undefined°, undefined°

Span
Click to sort rows by Start time (UTC) header in descending order
Start Az.
Max El. time (UTC)
Max El. Az.
Max El.
End time (UTC)
End Az.
6 mins2025-05-10 01:42:51.985Z222.478° SW2025-05-10 01:45:51.985Z163.701° S43.455°2025-05-10 01:48:51.985Z54.132° ENE
5 mins2025-05-10 08:13:51.985Z326.218° NNW2025-05-10 08:15:51.985Z40.937° NE38.405°2025-05-10 08:18:51.985Z114.142° SE
|